Preview of NWS' New Version of Forecast
This preview is not operational and should not be used for support decisions.

Regional Weather Roundup (RWR)

Issued by National Weather Service (NWS)

                            
000
ASUS46 KSEW 190910
RWRWA 

WASHINGTON REGIONAL WEATHER ROUNDUP
NATIONAL WEATHER SERVICE SEATTLE WA
200 AM PDT FRI APR 19 2019

NOTE:"FAIR" INDICATES FEW OR NO CLOUDS BELOW 12,000 FEET WITH NO 
SIGNIFICANT WEATHER AND/OR OBSTRUCTIONS TO VISIBILITY.

WAZ507-509-555>559-191000-
SEATTLE, TACOMA, EVERETT, AND VICINITY
  
CITY           SKY/WX    TMP DP  RH WIND       PRES   REMARKS
EVERETT        CLOUDY    55  51  86 S9        30.00F                  
BOEING FIELD   CLOUDY    57  52  83 SE7       30.02F                  
RENTON         CLOUDY    58  53  84 SE3       30.02F                  
SEATAC AIRPORT CLOUDY    56  52  86 S7        30.03F                  
JBLM-MCCHORD   CLOUDY    55  55 100 W5        30.03F                  
PUYALLUP       MOCLDY    55  55 100 CALM      30.03F                  
BREMERTON      CLOUDY    52  50  93 S8        30.02F                  
JBLM-FT LEWIS  CLOUDY    54  54 100 CALM      30.03F                  
TACOMA NARROWS CLOUDY    54  51  90 W6        30.04F                  
$$
 
WAZ001-503-506-510-514-515-191000-
NORTH INTERIOR
  
CITY           SKY/WX    TMP DP  RH WIND       PRES   REMARKS
BELLINGHAM     LGT RAIN  54  51  90 VRB3      30.00F                  
FRIDAY HARBOR  CLOUDY    52  50  93 CALM      30.01F                  
EASTSOUND      LGT RAIN  54  54 100 CALM      29.98F                  
PORT ANGELES   LGT RAIN  51  50  96 W6        30.01F                  
EDIZ HOOK      CLOUDY    51  50  98 W7        30.01S                  
PORT TOWNSEND  CLOUDY    52  52 100 CALM      30.00S                  
NAS WHIDBEY    CLOUDY    56  51  84 S8        30.04F                  
ARLINGTON      CLOUDY    56  52  86 S8        30.01F                  
BURLINGTON     CLOUDY    54  54 100 S3        30.00F                  
$$
 
WAZ020-022-039-040-504-511-512-191000-
SOUTHWEST INTERIOR
  
CITY           SKY/WX    TMP DP  RH WIND       PRES   REMARKS
SHELTON        CLOUDY    53  50  89 SW8       30.01F                  
OLYMPIA        CLOUDY    54  51  90 W3        30.04F                  
CHEHALIS       CLOUDY    55  54  94 CALM      30.04F                  
KELSO          MOCLDY    54  52  93 CALM      30.05F                  
VANCOUVER      MOCLDY    57  52  83 CALM      30.03F                  
SCAPPOOSE, OR  PTCLDY    56  51  84 CALM      30.04F                  
PORTLAND, OR   CLOUDY    58  51  78 W5        30.04F                  
$$
 
WAZ021-516-517-191000-
WASHINGTON COAST
  
CITY           SKY/WX    TMP DP  RH WIND       PRES   REMARKS
FORKS          LGT RAIN  50  50 100 S5        30.01F FOG              
HOQUIAM        CLOUDY    52  52 100 SW6       30.05F                  
ASTORIA, OR    CLOUDY    53  50  89 CALM      30.05F                  
$$
 
WAZ019-023-024-040-567>569-191000-
CASCADE MOUNTAINS AND COLUMBIA GORGE
  
CITY           SKY/WX    TMP DP  RH WIND       PRES   REMARKS
STAMPEDE PASS  FOG       47  44  90 W3        30.05F VSB 3/4          
TROUTDALE, OR  CLOUDY    59  52  77 W3        30.04F                  
HOOD RIVER, OR PTSUNNY   55  50  82 MISG      30.01F                  
THE DALLES, OR MOCLDY    63  50  62 N3        29.98F                  
$$

WAZ026-027-041>044-520-521-191000-
EAST SLOPES
  
CITY           SKY/WX    TMP DP  RH WIND       PRES   REMARKS
OMAK           PTCLDY    59  47  64 S8        29.91F                  
WENATCHEE      PTCLDY    53  47  79 SW6       29.96F                  
ELLENSBURG     MOCLDY    58  48  69 NW16      29.98F                  
YAKIMA         CLOUDY    59  49  69 CALM      29.96F                  
SUNNYSIDE ARPT PTSUNNY   58  52  81 NE3       29.95F                  
YAKIMA TC      PTSUNNY   57  48  71 CALM      29.96F                  
$$

WAZ028-034-035-191000-
COLUMBIA BASIN
  
CITY           SKY/WX    TMP DP  RH WIND       PRES   REMARKS
EPHRATA        MOCLDY    58  50  75 W3        29.94F                  
MOSES LAKE     MOCLDY    61  50  67 S3        29.95F                  
PASCO          MOCLDY    66  51  58 SW3       29.96F                  
RICHLAND ARPT  CLOUDY    63  53  70 S3        29.96                   
HERMISTON, OR  MOCLDY    61  52  72 CALM      29.97F                  
$$

WAZ036>038-191000-
NORTHEAST WASHINGTON
  
CITY           SKY/WX    TMP DP  RH WIND       PRES   REMARKS
SPOKANE GEIGER CLOUDY    55  45  68 S7        29.99F                  
SPOKANE FELTS  CLOUDY    56  46  69 N3        29.99F                  
FAIRCHILD AFB  CLOUDY    54  50  86 S9        29.98F                  
COEURDALENE,ID MOCLDY    54  46  74 S8        30.00                   
DEER PARK        N/A     49  44  83 CALM      29.99F                  
$$

WAZ029>033-191000-
SOUTHEAST WASHINGTON
  
CITY           SKY/WX    TMP DP  RH WIND       PRES   REMARKS
PULLMAN        CLOUDY    56  48  74 E5        30.04F                  
LEWISTON, ID   PTCLDY    55  47  74 CALM      30.02F                  
WALLA WALLA    MOCLDY    63  49  60 SE6       29.98F                  
PENDLETON, OR  PTCLDY    55  49  80 SE8       30.00F                  
$$